Hatteras, NC

1:26 AM EST on November 20, 2019 (GMT -0500)
Mitchell

Weather History for KHSE - October, 2019

Change the Weather History Date:

Monday, October 21, 2019

  Actual Average Record
Temperature  
Mean Temperature 62 °F 64 °F  
Max Temperature 64 °F 71 °F 84 °F (1993)
Min Temperature 60 °F 58 °F 40 °F (1992)
Degree Days  
Heating Degree Days 3 3  
Month to date heating degree days 16 34  
Since 1 July heating degree days 16 37  
Cooling Degree Days 0 2  
Month to date cooling degree days 53 81  
Year to date cooling degree days 2131 1673  
Growing Degree Days 12 (Base 50)    
Moisture  
Dew Point 60 °F    
Average Humidity 94    
Maximum Humidity 100    
Minimum Humidity 87    
Precipitation  
Precipitation T in 0.18 in 5.29 in (1985)
Month to date precipitation 5.40 3.66  
Year to date precipitation 47.26 47.10  
Snow  
Snow 0.00 in - - ()
Month to date snowfall 0.0  
Since 1 July snowfall 0.0  
Snow Depth 0.00 in    
Sea Level Pressure  
Sea Level Pressure 29.99 in    
Wind  
Wind Speed 8 mph ()    
Max Wind Speed 14 mph    
Max Gust Speed 25 mph    
Visibility 9.7 miles    
Events      
T = Trace of Precipitation, MM = Missing Value Source: Averaged Metar Reports

Daily Weather History Graph

Daily Weather History Graph

Search for Another Location

Airport or City:

Astronomy

Oct. 21, 2019 Rise Set
Actual Time 7:13 AM EDT 6:20 PM EDT
Civil Twilight 6:47 AM EDT 6:45 PM EDT
Nautical Twilight 6:18 AM EDT 7:15 PM EDT
Astronomical Twilight 5:48 AM EDT 7:44 PM EDT
Moon No Moon Rise 2:22 PM EDT (10/21)
Length of Visible Light 11h 58m
Length of Day
11h 06m
Waning Gibbous, 48% of the Moon is Illuminated
Oct 21
Waning Gibbous
Oct 27
New
Nov 4
First Quarter
Nov 12
Full
Nov 19
Last Quarter

Hourly Weather History & Observations

Time (EDT) Temp. Dew Point Humidity Pressure Visibility Wind Dir Wind Speed Gust Speed Precip Events Conditions
12:18 AM 62.1 °F 60.1 °F 93% 29.84 in 10.0 mi NW 10.4 mph 20.7 mph N/A   Overcast
12:43 AM 62.1 °F 61.0 °F 96% 29.85 in 10.0 mi NW 11.5 mph 21.9 mph 0.01 in   Overcast
12:51 AM 62.1 °F 60.1 °F 93% 29.86 in 10.0 mi NW 13.8 mph 23.0 mph 0.01 in   Overcast
1:51 AM 62.1 °F 59.0 °F 90% 29.87 in 10.0 mi NW 10.4 mph 18.4 mph N/A   Overcast
2:40 AM 61.0 °F 60.1 °F 97% 29.88 in 9.0 mi NW 10.4 mph 23.0 mph 0.00 in   Overcast
2:51 AM 61.0 °F 60.1 °F 97% 29.88 in 10.0 mi NW 10.4 mph 20.7 mph 0.00 in   Overcast
3:13 AM 61.0 °F 60.1 °F 97% 29.89 in 9.0 mi NW 12.7 mph 19.6 mph N/A   Overcast
3:31 AM 61.0 °F 60.1 °F 97% 29.88 in 10.0 mi NW 12.7 mph 23.0 mph N/A   Overcast
3:51 AM 61.0 °F 60.1 °F 97% 29.89 in 10.0 mi NW 10.4 mph 19.6 mph N/A   Overcast
4:51 AM 62.1 °F 60.1 °F 93% 29.92 in 10.0 mi NNW 10.4 mph 20.7 mph N/A   Overcast
4:59 AM 61.0 °F 60.1 °F 97% 29.92 in 10.0 mi NW 11.5 mph 20.7 mph N/A   Overcast
5:10 AM 61.0 °F 59.0 °F 93% 29.93 in 10.0 mi NW 10.4 mph 20.7 mph N/A   Overcast
5:47 AM 60.8 °F 59.0 °F 94% 29.95 in 10.0 mi NW 11.5 mph 19.6 mph N/A   Overcast
5:51 AM 61.0 °F 59.0 °F 93% 29.95 in 10.0 mi NNW 8.1 mph 19.6 mph N/A   Overcast
6:28 AM 61.0 °F 57.9 °F 90% 29.96 in 10.0 mi Variable 5.8 mph 17.3 mph N/A   Overcast
6:38 AM 61.0 °F 57.9 °F 90% 29.96 in 10.0 mi Variable 5.8 mph - N/A   Overcast
6:51 AM 61.0 °F 57.9 °F 90% 29.97 in 10.0 mi NNW 8.1 mph - N/A   Overcast
7:51 AM 61.0 °F 59.0 °F 93% 29.99 in 10.0 mi Variable 5.8 mph - N/A   Overcast
8:30 AM 61.0 °F 60.1 °F 97% 30.01 in 9.0 mi NNW 8.1 mph - N/A   Overcast
8:51 AM 61.0 °F 60.1 °F 97% 30.01 in 10.0 mi Variable 6.9 mph - N/A   Overcast
9:14 AM 62.1 °F 60.1 °F 93% 30.01 in 10.0 mi Variable 6.9 mph - N/A   Overcast
9:51 AM 62.1 °F 60.1 °F 93% 30.03 in 10.0 mi North 6.9 mph 18.4 mph N/A   Overcast
10:51 AM 62.1 °F 60.1 °F 93% 30.04 in 10.0 mi Variable 6.9 mph - N/A   Overcast
11:51 AM 63.0 °F 60.1 °F 90% 30.05 in 10.0 mi North 8.1 mph - N/A   Overcast
12:51 PM 63.0 °F 61.0 °F 93% 30.05 in 10.0 mi Variable 4.6 mph - N/A   Overcast
1:51 PM 64.0 °F 61.0 °F 90% 30.04 in 10.0 mi North 8.1 mph - N/A   Overcast
2:51 PM 63.0 °F 61.0 °F 93% 30.04 in 10.0 mi Variable 4.6 mph - N/A   Overcast
3:49 PM 62.6 °F 60.8 °F 94% 30.05 in 8.0 mi Variable 5.8 mph - N/A   Overcast
3:51 PM 62.1 °F 61.0 °F 96% 30.06 in 9.0 mi Variable 4.6 mph - N/A   Overcast
4:19 PM 62.1 °F 61.0 °F 96% 30.05 in 8.0 mi NW 4.6 mph - N/A   Overcast
4:28 PM 62.1 °F 61.0 °F 96% 30.05 in 7.0 mi Variable 4.6 mph - N/A   Overcast
4:31 PM 62.1 °F 61.0 °F 96% 30.06 in 8.0 mi NNW 5.8 mph - N/A   Overcast
4:40 PM 62.1 °F 61.0 °F 96% 30.06 in 10.0 mi Variable 3.5 mph - N/A   Overcast
4:51 PM 62.1 °F 61.0 °F 96% 30.06 in 10.0 mi Variable 4.6 mph - N/A   Overcast
5:51 PM 62.1 °F 60.1 °F 93% 30.06 in 10.0 mi Variable 3.5 mph - N/A   Overcast
6:51 PM 62.1 °F 59.0 °F 90% 30.07 in 10.0 mi Variable 4.6 mph - N/A   Overcast
7:51 PM 62.1 °F 59.0 °F 90% 30.09 in 10.0 mi Variable 3.5 mph - N/A   Overcast
8:51 PM 62.1 °F 60.1 °F 93% 30.09 in 10.0 mi Variable 3.5 mph - N/A   Overcast
10:51 PM 63.0 °F 61.0 °F 93% 30.07 in 10.0 mi NE 5.8 mph - N/A   Overcast
11:51 PM 63.0 °F 61.0 °F 93% 30.06 in 10.0 mi NNE 5.8 mph - N/A   Overcast